Lucas Olsen

Olheiro-Chefe - Esbjerg
25 Nov 2027
Quinta-feira
Processo

Personalidade

Adaptabilidade (13) Ambição (2) Controvérsia (3) Lealdade (6) Pressão (3) Profissionalismo (1) Espírito Esportivo (7) Temperamento (1)

Perfil

Estilo de Treinamento Democrático
Licença Nacional A
Determinação 5
Gestão de Pessoas 9
Motivação 9
Disciplina 8
Satisfação no Trabalho
100%
Fadiga
0%
Função Olheiro-Chefe
Salário 54.4K p/s
Contrato 14.03.2029

Desempenho

Comportamento Bom
Eficácia do Treinamento
26%
Desenvolvimento do Jogador
20%
Prevenção de Lesões
40%
Implementação Tática
30%

Eventos Recentes

Participou de uma reunião de recrutamento 7d atrás
Participou de uma reunião de recrutamento 14d atrás
Participou de uma reunião de recrutamento 21d atrás
Participou de uma reunião de recrutamento 28d atrás
Participou de uma reunião de recrutamento 35d atrás
Participou de uma reunião de recrutamento 42d atrás
Participou de uma reunião de recrutamento 49d atrás
Participou de uma reunião de recrutamento 56d atrás

Monitorando agora

143
Jogador Clube Status Habilidade Confiança Observado Última observação Último voto
Augusto Berrondo Tristán Suárez Ativo 104 / 109 40% 1 30.08.2027 -
Luca Martínez Dupuy Godoy Cruz Ativo 119 / 119 40% 1 30.08.2027 -
Bernat Guiu Virtus Entella Ativo 129 / 124 40% 1 10.08.2027 -
Victor Adeboyejo Ismaily Ativo 111 / 87 40% 1 10.08.2027 -
Mees Rijks Bristol Rovers Ativo 99 / 102 40% 9 30.06.2027 -
Marcus Browne AFC Wimbledon Ativo 129 / 126 40% 1 30.06.2027 -
Tom Cannon Sheffield United Ativo 138 / 135 40% 7 21.06.2027 -
Tyreece Campbell Charlton Athletic Ativo 110 / 114 40% 3 21.06.2027 -
Patson Daka Leicester City Ativo 132 / 116 40% 4 14.06.2027 -
Aune Heggebø West Bromwich Albion Ativo 133 / 111 40% 13 31.05.2027 -
Tyrese Campbell Sheffield United Ativo 135 / 135 40% 3 31.05.2027 -
Malik Mothersille Stockport County Ativo 98 / 112 40% 1 30.05.2027 -
Ilyas Ansah Hull City Ativo 117 / 144 40% 7 29.05.2027 -
Aaron Drinan Swindon Town Ativo 105 / 111 40% 1 29.05.2027 -
Christian Saydee Wigan Athletic Ativo 123 / 114 40% 4 28.05.2027 -
Mathias Jørgensen Blackburn Rovers Ativo 112 / 107 40% 4 27.05.2027 -
Richard Koné Queens Park Rangers Ativo 134 / 121 40% 5 27.05.2027 -
Bojan Radulović Huddersfield Town Ativo 115 / 120 40% 9 26.05.2027 -
Bradley Fink Wycombe Wanderers Ativo 96 / 127 40% 1 23.05.2027 -
Kelly Saravanan Salford City Ativo 123 / 105 40% 1 22.05.2027 -
Sam Bell Bristol City Ativo 102 / 122 40% 2 19.05.2027 -
Mandla Mahlangu Ajax Cape Town Ativo 117 / 123 40% 5 16.05.2027 -
Aaron Collins Milton Keynes Dons Ativo 111 / 125 40% 2 16.05.2027 -
Yousef Salech Cardiff City Ativo 116 / 127 40% 4 14.05.2027 -
Luis Vázquez Birmingham Ativo 127 / 132 40% 7 11.05.2027 -
Ronan Hale Gillingham Ativo 131 / 115 40% 2 11.05.2027 -
Marezi Portsmouth Ativo 112 / 125 40% 5 06.05.2027 -
Stephen Humphrys Bradford City Ativo 113 / 114 40% 1 05.05.2027 -
Themba Ngcobo SuperSport United Ativo 117 / 118 40% 3 04.05.2027 -
Robert Mizo Ashanti Gold Ativo 126 / 91 40% 3 03.05.2027 -
Josh Koroma Leyton Orient Ativo 99 / 98 40% 1 03.05.2027 -
Dom Ballard Leyton Orient Ativo 111 / 122 40% 6 30.04.2027 -
Jayden Wareham Barnet Ativo 85 / 119 40% 1 30.04.2027 -
Harry Leonard Peterborough United Ativo 115 / 120 40% 4 28.04.2027 -
Niall Ennis Blackpool Ativo 95 / 116 40% 3 27.04.2027 -
Etiosa Ighodaro Kaizer Chiefs Ativo 111 / 119 40% 4 24.04.2027 -
Iwan Morgan Grimsby Town Ativo 112 / 114 40% 3 24.04.2027 -
Mohamed-Ali Cho Hull City Ativo 118 / 118 40% 5 19.04.2027 -
Lorent Tolaj Plymouth Argyle Ativo 125 / 120 40% 4 16.04.2027 -
Callum O'Hare Sheffield United Ativo 122 / 108 40% 3 13.04.2027 -
Tomás González Piast Ativo 112 / 109 40% 4 27.03.2027 -
Cameron Archer Southampton Ativo 106 / 133 40% 1 25.03.2027 -
Rhian Brewster Oxford United Ativo 124 / 112 40% 2 24.03.2027 -
Joe Gelhardt Hull City Ativo 135 / 123 40% 3 22.03.2027 -
Santiago Pierotti Lecce Ativo 129 / 136 40% 1 22.03.2027 -
Kwame Opoku Asante Kotoko Ativo 116 / 98 40% 3 21.03.2027 -
Isaac Essien WAFA Ativo 88 / 101 40% 1 12.03.2027 -
Lee Bonis Chesterfield Ativo 118 / 83 40% 2 09.03.2027 -
Evidence Makgopa Orlando Pirates Ativo 132 / 115 40% 2 05.03.2027 -
Ruben van Bommel Ferencvaros Ativo 130 / 133 40% 1 13.02.2027 -
Bienvenue Kanakimana Zbrojovka Brno Ativo 104 / 106 40% 1 10.02.2027 -
Brayan León Mamelodi Sundowns Ativo 121 / 126 40% 1 06.02.2027 -
Tommy Conway Middlesbrough Ativo 118 / 136 40% 2 05.02.2027 -
Abu Kamara Portsmouth Ativo 136 / 114 40% 1 04.02.2027 -
Frederik Emmery AGF Ativo 94 / 89 48% 1 18.01.2027 -
Jack Diamond Stockport County Ativo 119 / 96 40% 1 18.01.2027 -
Welington Southampton Ativo 138 / 137 40% 1 12.01.2027 -
Ethan Galbraith Swansea City Ativo 131 / 144 40% 1 12.01.2027 -
Maxime Soulas SonderjyskE Ativo 131 / 113 40% 2 03.01.2027 -
Luke McNally Bristol City Ativo 138 / 109 40% 1 03.01.2027 -
Jean-Manuel Mbom Viborg Ativo 129 / 109 40% 2 01.01.2027 -
Juan Mosquera Sheffield Wednesday Ativo 138 / 123 40% 1 01.01.2027 -
Mandla Erasmus SuperSport United Ativo 114 / 126 40% 2 29.12.2026 -
Velemseni Ndwandwe Golden Arrows Ativo 96 / 107 40% 1 29.12.2026 -
Emmanuel Dennis Brondby Ativo 122 / 126 40% 2 27.12.2026 -
Cian Ashford Cardiff City Ativo 116 / 138 40% 1 27.12.2026 -
Will Lankshear Middlesbrough Ativo 123 / 135 40% 1 27.12.2026 -
Jacques Siwe Rubin Ativo 133 / 137 40% 1 25.12.2026 -
Reda Khadra Qarabag Ativo 112 / 113 40% 2 23.12.2026 -
Derensili Sanches Fernandes Huddersfield Town Ativo 111 / 130 40% 2 22.12.2026 -
Robert FC Copenhagen Ativo 119 / 126 40% 3 19.12.2026 -
Fiete Arp OB Ativo 124 / 119 40% 4 18.12.2026 -
Tshepang Moremi Orlando Pirates Ativo 109 / 109 40% 2 17.12.2026 -
Sayfallah Ltaief Cracovia Ativo 141 / 138 40% 1 17.12.2026 -
Finn Azaz Southampton Ativo 137 / 133 40% 1 16.12.2026 -
Philip Billing FC Midtjylland Ativo 128 / 130 40% 2 14.12.2026 -
Ammar Ramadan DAC Dunajska Streda Ativo 122 / 130 40% 1 13.12.2026 -
Lewis Morgan SuperSport United Ativo 136 / 144 40% 2 11.12.2026 -
Riley McGree Middlesbrough Ativo 111 / 142 40% 1 10.12.2026 -
Oliver Bundgaard Viborg Ativo 122 / 117 40% 2 09.12.2026 -
Alan Lescano Argentinos Juniors Ativo 126 / 135 40% 1 08.12.2026 -
Tobias Bech AGF Ativo 145 / 114 40% 2 07.12.2026 -
Petar Stanić Ludogorets Ativo 123 / 138 40% 1 06.12.2026 -
Kevin Yakob AGF Ativo 111 / 136 40% 1 03.12.2026 -
Alejandro Melo Cibalia Ativo 97 / 135 40% 2 02.12.2026 -
Seedy Jatta Sturm Graz Ativo 137 / 105 40% 3 28.11.2026 -
Bénie Traoré New York City Ativo 134 / 120 40% 1 27.11.2026 -
Aidomo Emakhu Oxford United Ativo 131 / 123 40% 1 27.11.2026 -
Albert Rusnak FK Senica Ativo 95 / 78 40% 1 26.11.2026 -
Mduduzi Shabalala Kaizer Chiefs Ativo 120 / 127 40% 1 25.11.2026 -
Mads Frøkjær Brondby Ativo 114 / 116 40% 1 21.11.2026 -
Leandro Lozano Boca Juniors Ativo 122 / 114 40% 1 18.11.2026 -
Lukáš Červ Viktoria Plzen Ativo 121 / 130 40% 1 17.11.2026 -
Filip Bundgaard Brondby Ativo 123 / 128 40% 2 16.11.2026 -
Edward Chilufya FC Midtjylland Ativo 128 / 113 40% 1 15.11.2026 -
Peter Christiansen Viking Ativo 134 / 132 40% 2 14.11.2026 -
Youssoufa Moukoko FC Copenhagen Ativo 116 / 129 40% 1 11.11.2026 -
Demba Seck Partizan Ativo 126 / 96 40% 1 11.11.2026 -
Kévin Denkey FC Cincinnati Ativo 124 / 121 40% 2 08.11.2026 -
Ibrahim Adel FC Nordsjaelland Ativo 128 / 120 40% 2 05.11.2026 -
Wessam Abou Ali Columbus Crew Ativo 149 / 138 40% 2 03.11.2026 -
Breel Embolo Atlanta United FC Ativo 130 / 120 40% 3 01.11.2026 -
Omar Faraj Halmstad Ativo 110 / 115 40% 1 30.10.2026 -
Frederik Christensen Hobro Ativo 117 / 110 40% 2 29.10.2026 -
Everton Bala Levski Ativo 130 / 132 40% 1 29.10.2026 -
Gabriel Jesus Barcelona Ativo 161 / 133 40% 2 25.10.2026 -
Sead Hakšabanović Malmo FF Ativo 112 / 115 40% 1 25.10.2026 -
Dejan Joveljić Seattle Sounders Ativo 126 / 127 40% 1 24.10.2026 -
Allan Saint-Maximin Charlotte Football Club Ativo 147 / 122 40% 2 19.10.2026 -
Assad Al Hamlawi Universitatea Craiova Ativo 111 / 129 40% 1 19.10.2026 -
Victor Olatunji Real Salt Lake Ativo 100 / 105 40% 1 19.10.2026 -
Daniel Karlsbakk Sarpsborg 08 Ativo 124 / 116 40% 2 17.10.2026 -
Tio Cipot NK Maribor Ativo 95 / 113 40% 1 13.10.2026 -
Rasmus Kristensen FC Midtjylland Ativo 137 / 147 40% 3 10.10.2026 -
David Da Costa Portland Timbers Ativo 113 / 122 40% 1 08.10.2026 -
Marcel Hartel St. Louis CITY SC Ativo 120 / 129 40% 1 07.10.2026 -
Oswin Appollis Orlando Pirates Ativo 99 / 97 40% 1 07.10.2026 -
Brais Méndez Columbus Crew Ativo 140 / 162 40% 1 06.10.2026 -
Paxten Aaronson Colorado Rapids Ativo 114 / 128 40% 1 26.09.2026 -
Patrick Maswanganyi Orlando Pirates Ativo 126 / 121 40% 1 26.09.2026 -
Andrés Herrera Columbus Crew Ativo 133 / 120 40% 3 25.09.2026 -
Nduduzo Sibiya Golden Arrows Ativo 121 / 95 40% 1 25.09.2026 -
Elias Achouri San Diego Football Club Ativo 150 / 133 40% 1 22.09.2026 -
Sergi Palencia Los Angeles Football Club Ativo 136 / 145 40% 1 21.09.2026 -
Martín Ojeda Orlando City Ativo 122 / 128 40% 1 19.09.2026 -
Jordan Morris Seattle Sounders Ativo 112 / 141 40% 1 18.09.2026 -
Amin Boudri Los Angeles Football Club Ativo 128 / 118 40% 1 17.09.2026 -
Jack Harrison New England Revolution Ativo 132 / 125 40% 1 17.09.2026 -
Gabriel Pirani San Diego Football Club Ativo 149 / 110 40% 1 15.09.2026 -
Santiago Rodríguez Columbus Crew Ativo 107 / 137 40% 1 14.09.2026 -
Gabriel Pereira FC Copenhagen Ativo 133 / 123 40% 1 13.09.2026 -
Miles Robinson FC Cincinnati Ativo 136 / 120 40% 1 13.09.2026 -
Riqui Puig LA Galaxy Ativo 131 / 110 40% 1 13.09.2026 -
Alonso Martínez New York City Ativo 102 / 109 40% 1 12.09.2026 -
Bryan Ramírez FC Cincinnati Ativo 111 / 133 40% 1 12.09.2026 -
Yves Bissouma Tottenham Ativo 157 / 146 40% 1 11.09.2026 -
Gift Ngcobo Ajax Cape Town Ativo 127 / 121 40% 1 08.09.2026 -
Nicolás Romero Minnesota United FC Ativo 117 / 147 40% 1 07.09.2026 -
Joao Ortiz Portland Timbers Ativo 110 / 138 40% 1 07.09.2026 -
David Schnegg Charlotte Football Club Ativo 126 / 125 40% 1 18.08.2026 -
Marcus Ingvartsen San Diego Football Club Ativo 124 / 105 40% 1 13.08.2026 -
Nico Elvedi Leeds United Ativo 148 / 157 40% 1 01.08.2026 -
Khuliso Mudau Mamelodi Sundowns Ativo 141 / 129 40% 1 01.08.2026 -